Weather in Kabir-Kazmalyar

Russia / Republic of Dagestan     41°44′43″N   48°29′14″E
temp.,
°C
wind,
m/s
gust,
m/s
humid.,
%
clouds,
%
prec.,
mm/h
press.,
hPa
HPBL,
m
10 august, wed
wed1000:00+21wsw33563 0.0 101430
03:00+21sw33560 0.0 101333
06:00+23sw22490 0.0 101351
09:00+30ne32270 0.0 10121108
12:00+32ene64260 0.0 10111300
15:00+31e66300 0.0 1010951
18:00+28ese56410 0.0 1010565
21:00+23s33550 0.0 101148
11 august, thu
thu1100:00+22s34520 0.0 101045
03:00+22ssw22500 0.0 100912
06:00+24ssw22442 0.0 100965
09:00+34ese811240 0.0 10081857
12:00+35ese1213270 0.0 10071298
15:00+33ese1316390 0.0 1006945
18:00+30ese1017430 0.0 1006797
21:00+28se412430 0.0 1008432
12 august, fri
fri1200:00+24sw22550 0.0 100921
03:00+23w22620 0.0 101013
06:00+25ssw11490 0.0 101145
09:00+33ese68290 0.0 10111297
12:00+34ese99300 0.0 10101395
15:00+33e79330 0.0 10101054
18:00+28e45450 0.0 1012404
21:00+23sw11690 0.0 101311
13 august, sat
sat1300:00+22sw22600 0.0 101211
03:00+22wsw33500 0.0 101229
06:00+25sw22440 0.0 101257
09:00+32e46255 0.0 1012948
12:00+33e78320 0.0 10111034
15:00+32e79360 0.0 1010884
18:00+28e34480 0.0 1011348
21:00+23ssw11620 0.0 101211
14 august, sun
sun1400:00+22ssw22531 0.0 101111
03:00+22sw22460 0.0 101016
06:00+25sw22380 0.0 101044
09:00+33e56200 0.0 10101033
12:00+34e68260 0.0 10091127
15:00+34e710300 0.0 1008931
18:00+29ese36440 0.0 1009365
21:00+24s11680 0.0 101011